Tallevast, FL

9:46 PM EDT on July 23, 2016 (GMT -0400)
Sarasota-bradenton

Weather History for KSRQ - October, 2011

Change the Weather History Date:

Wednesday, October 19, 2011

  Actual Average Record
Temperature  
Mean Temperature 76 °F 76 °F  
Max Temperature 82 °F 85 °F 92 °F (1971)
Min Temperature 70 °F 67 °F 47 °F (1977)
Degree Days  
Heating Degree Days 0 0  
Month to date heating degree days 0 0  
Since 1 July heating degree days 0 0  
Cooling Degree Days 11 11  
Month to date cooling degree days 234 244  
Year to date cooling degree days 3272 3033  
Growing Degree Days 26 (Base 50)    
Moisture  
Dew Point 69 °F    
Average Humidity 76    
Maximum Humidity 91    
Minimum Humidity 49    
Precipitation  
Precipitation 0.24 in 0.09 in 2.75 in (1958)
Month to date precipitation 1.41 2.17  
Year to date precipitation 38.98 47.60  
Sea Level Pressure  
Sea Level Pressure 29.64 in    
Wind  
Wind Speed 18 mph (West)    
Max Wind Speed 28 mph    
Max Gust Speed 36 mph    
Visibility 9 miles    
Events Rain    
T = Trace of Precipitation, MM = Missing Value Source: NWS Daily Summary

Daily Weather History Graph

Daily Weather History Graph

Search for Another Location

Airport or City:

Trip Planner

Search our weather history database for the weather conditions in past years. The results will help you decide how hot, cold, wet, or windy it might be!

Date:

Astronomy

Oct. 19, 2011 Rise Set
Actual Time 7:32 AM EDT 6:57 PM EDT
Civil Twilight 7:08 AM EDT 7:21 PM EDT
Nautical Twilight 6:41 AM EDT 7:48 PM EDT
Astronomical Twilight 6:14 AM EDT 8:15 PM EDT
Moon No Moon Rise 1:48 PM EDT (10/19)
Length of Visible Light 12h 12m
Length of Day
11h 25m
Waning Gibbous, 55% of the Moon is Illuminated
Oct 19
Waning Gibbous
Oct 19
Last Quarter
Oct 26
New
Nov 2
First Quarter
Nov 10
Full

Hourly Weather History & Observations

Time (EDT) Temp. Heat Index Dew Point Humidity Pressure Visibility Wind Dir Wind Speed Gust Speed Precip Events Conditions
12:12 AM 80.6 °F 87.1 °F 77.0 °F 89% 29.56 in 10.0 mi South 15.0 mph - N/A   Overcast
12:24 AM 80.6 °F 87.1 °F 77.0 °F 89% 29.56 in 10.0 mi SSW 15.0 mph 21.9 mph N/A   Mostly Cloudy
12:46 AM 80.6 °F 87.1 °F 77.0 °F 89% 29.55 in 10.0 mi South 16.1 mph - N/A   Overcast
12:53 AM 80.1 °F 85.8 °F 77.0 °F 90% 29.55 in 10.0 mi South 13.8 mph - N/A   Overcast
1:02 AM 80.6 °F 87.1 °F 77.0 °F 89% 29.55 in 10.0 mi SSW 11.5 mph - N/A   Overcast
1:15 AM 80.6 °F 87.1 °F 77.0 °F 89% 29.55 in 10.0 mi South 11.5 mph - N/A   Mostly Cloudy
1:39 AM 80.6 °F 87.1 °F 77.0 °F 89% 29.55 in 10.0 mi SSW 13.8 mph - N/A   Mostly Cloudy
1:53 AM 81.0 °F 87.3 °F 75.9 °F 85% 29.55 in 10.0 mi SSW 15.0 mph - N/A   Mostly Cloudy
2:45 AM 80.6 °F 87.1 °F 77.0 °F 89% 29.53 in 8.0 mi SSW 15.0 mph 23.0 mph 0.03 in Rain Light Rain
2:53 AM 80.1 °F 85.4 °F 75.9 °F 87% 29.53 in 10.0 mi SSW 15.0 mph 23.0 mph 0.03 in Rain Light Rain
3:10 AM 80.6 °F 87.1 °F 77.0 °F 89% 29.53 in 10.0 mi SSW 13.8 mph 23.0 mph 0.00 in   Overcast
3:19 AM 80.6 °F 87.1 °F 77.0 °F 89% 29.54 in 10.0 mi WSW 16.1 mph 23.0 mph 0.00 in   Overcast
3:40 AM 80.6 °F 86.2 °F 75.2 °F 84% 29.54 in 10.0 mi WSW 13.8 mph 20.7 mph 0.00 in   Mostly Cloudy
3:53 AM 80.6 °F 85.4 °F 73.4 °F 79% 29.54 in 10.0 mi WSW 12.7 mph - N/A   Scattered Clouds
4:53 AM 80.1 °F 84.5 °F 73.9 °F 81% 29.52 in 10.0 mi WSW 13.8 mph - N/A   Clear
5:31 AM 80.6 °F 86.2 °F 75.2 °F 84% 29.53 in 10.0 mi WSW 12.7 mph - N/A   Mostly Cloudy
5:53 AM 79.0 °F - 73.9 °F 84% 29.54 in 10.0 mi WNW 17.3 mph - N/A   Overcast
6:53 AM 78.8 °F - 73.4 °F 83% 29.58 in 10.0 mi WNW 15.0 mph - N/A   Scattered Clouds
7:53 AM 79.0 °F - 73.0 °F 82% 29.59 in 10.0 mi WNW 12.7 mph - N/A   Clear
8:53 AM 80.1 °F 83.8 °F 72.0 °F 76% 29.61 in 10.0 mi West 10.4 mph - N/A   Clear
9:53 AM 81.0 °F 84.9 °F 71.1 °F 72% 29.63 in 10.0 mi West 11.5 mph - N/A   Clear
10:50 AM 78.8 °F - 73.4 °F 83% 29.66 in 1.0 mi WNW 20.7 mph 25.3 mph 0.06 in Rain Rain
10:53 AM 77.0 °F - 73.0 °F 88% 29.66 in 1.0 mi WNW 18.4 mph - 0.09 in Rain Rain
11:19 AM 75.2 °F - 73.4 °F 94% 29.67 in 9.0 mi NW 12.7 mph - 0.12 in Rain Light Rain
11:53 AM 77.0 °F - 69.8 °F 78% 29.68 in 10.0 mi WNW 23.0 mph 32.2 mph N/A   Overcast
12:53 PM 77.0 °F - 66.9 °F 71% 29.69 in 10.0 mi WNW 21.9 mph 33.4 mph N/A   Overcast
1:05 PM 77.0 °F - 66.2 °F 69% 29.68 in 10.0 mi WNW 23.0 mph 32.2 mph N/A   Overcast
1:53 PM 77.0 °F - 64.0 °F 64% 29.68 in 10.0 mi WNW 24.2 mph 31.1 mph N/A   Overcast
2:53 PM 77.0 °F - 63.0 °F 62% 29.68 in 10.0 mi WNW 19.6 mph 28.8 mph N/A   Overcast
3:53 PM 75.0 °F - 61.0 °F 62% 29.69 in 10.0 mi WNW 20.7 mph 31.1 mph N/A   Overcast
4:53 PM 75.0 °F - 59.0 °F 57% 29.73 in 10.0 mi WNW 21.9 mph 29.9 mph N/A   Mostly Cloudy
5:53 PM 73.0 °F - 57.9 °F 59% 29.75 in 10.0 mi WNW 19.6 mph - N/A   Mostly Cloudy
6:53 PM 71.1 °F - 55.0 °F 57% 29.78 in 10.0 mi NW 21.9 mph 27.6 mph N/A   Scattered Clouds
7:53 PM 71.1 °F - 53.1 °F 53% 29.83 in 10.0 mi WNW 23.0 mph - N/A   Partly Cloudy
8:53 PM 70.0 °F - 55.0 °F 59% 29.84 in 10.0 mi WNW 19.6 mph 28.8 mph N/A   Mostly Cloudy
9:53 PM 71.1 °F - 52.0 °F 51% 29.86 in 10.0 mi WNW 18.4 mph 25.3 mph N/A   Partly Cloudy
10:53 PM 71.1 °F - 52.0 °F 51% 29.88 in 10.0 mi WNW 18.4 mph 29.9 mph N/A   Mostly Cloudy
11:53 PM 72.0 °F - 52.0 °F 49% 29.88 in 10.0 mi WNW 19.6 mph 29.9 mph N/A   Scattered Clouds